![]() |
EMODnet Physics ERDDAP
Easier access to scientific data |
log in|
Brought to you by EMODnet Physics |
| Dataset Title: | NDBC - Collection of dew point temperature (DEWT) TimeSeries - IN SITU MultiPointTimeSeriesObservation
|
| Institution: | NDBC (Dataset ID: TS_DEWT_NDBC) |
| Information: | Summary
| License
| FGDC
| ISO 19115
| Metadata
| Background
| Subset
| Data Access Form
| Make a graph
|
| Name | Last modified | Size | Description | |
|---|---|---|---|---|
| Parent Directory | - | - | ||
| 46087_TS_DEWT_012005.nc | 06-Dec-2024 04:22 | 1470587 | ||
| 46087_TS_DEWT_012006.nc | 06-Dec-2024 04:25 | 1461110 | ||
| 46087_TS_DEWT_012007.nc | 06-Dec-2024 04:27 | 1466712 | ||
| 46087_TS_DEWT_012008.nc | 06-Dec-2024 04:29 | 1157217 | ||
| 46087_TS_DEWT_012009.nc | 06-Dec-2024 04:31 | 1470015 | ||
| 46087_TS_DEWT_012012.nc | 06-Dec-2024 04:37 | 1151944 | ||
| 46087_TS_DEWT_012013.nc | 06-Dec-2024 04:39 | 1477050 | ||
| 46087_TS_DEWT_012014.nc | 06-Dec-2024 04:41 | 996261 | ||
| 46087_TS_DEWT_012015.nc | 06-Dec-2024 04:43 | 1474060 | ||
| 46087_TS_DEWT_012016.nc | 06-Dec-2024 04:45 | 1473073 | ||
| 46087_TS_DEWT_012017.nc | 06-Dec-2024 04:47 | 1459608 | ||
| 46087_TS_DEWT_012018.nc | 06-Dec-2024 04:57 | 1476508 | ||
| 46087_TS_DEWT_012019.nc | 06-Dec-2024 05:01 | 428252 | ||
| 46087_TS_DEWT_012020.nc | 06-Dec-2024 05:03 | 1627143 | ||
| 46087_TS_DEWT_012023.nc | 06-Dec-2024 05:09 | 1627398 | ||
| 46087_TS_DEWT_012025.nc | 07-Feb-2025 11:19 | 1627867 | ||
| 46087_TS_DEWT_012026.nc | 02-Feb-2026 18:29 | 1625999 | ||
| 46087_TS_DEWT_022005.nc | 06-Dec-2024 04:22 | 425807 | ||
| 46087_TS_DEWT_022006.nc | 06-Dec-2024 04:25 | 429875 | ||
| 46087_TS_DEWT_022007.nc | 06-Dec-2024 04:27 | 429703 | ||
| 46087_TS_DEWT_022008.nc | 06-Dec-2024 04:29 | 429527 | ||
| 46087_TS_DEWT_022009.nc | 06-Dec-2024 04:31 | 429491 | ||
| 46087_TS_DEWT_022012.nc | 06-Dec-2024 04:37 | 1626709 | ||
| 46087_TS_DEWT_022013.nc | 06-Dec-2024 04:39 | 429052 | ||
| 46087_TS_DEWT_022014.nc | 06-Dec-2024 04:41 | 428091 | ||
| 46087_TS_DEWT_022015.nc | 06-Dec-2024 04:43 | 428758 | ||
| 46087_TS_DEWT_022016.nc | 06-Dec-2024 04:45 | 429018 | ||
| 46087_TS_DEWT_022017.nc | 06-Dec-2024 04:48 | 1469295 | ||
| 46087_TS_DEWT_022018.nc | 06-Dec-2024 04:57 | 429833 | ||
| 46087_TS_DEWT_022019.nc | 06-Dec-2024 05:01 | 429787 | ||
| 46087_TS_DEWT_022020.nc | 06-Dec-2024 05:03 | 429347 | ||
| 46087_TS_DEWT_022023.nc | 06-Dec-2024 05:09 | 429709 | ||
| 46087_TS_DEWT_022025.nc | 01-Mar-2025 07:57 | 1478005 | ||
| 46087_TS_DEWT_022026.nc | 01-Mar-2026 08:49 | 429495 | ||
| 46087_TS_DEWT_032005.nc | 06-Dec-2024 04:23 | 429495 | ||
| 46087_TS_DEWT_032006.nc | 06-Dec-2024 04:25 | 429425 | ||
| 46087_TS_DEWT_032007.nc | 06-Dec-2024 04:27 | 429454 | ||
| 46087_TS_DEWT_032008.nc | 06-Dec-2024 04:29 | 428375 | ||
| 46087_TS_DEWT_032009.nc | 06-Dec-2024 04:31 | 1476392 | ||
| 46087_TS_DEWT_032012.nc | 06-Dec-2024 04:37 | 429795 | ||
| 46087_TS_DEWT_032013.nc | 06-Dec-2024 04:39 | 429591 | ||
| 46087_TS_DEWT_032014.nc | 06-Dec-2024 04:41 | 429836 | ||
| 46087_TS_DEWT_032015.nc | 06-Dec-2024 04:43 | 429388 | ||
| 46087_TS_DEWT_032016.nc | 06-Dec-2024 04:45 | 429834 | ||
| 46087_TS_DEWT_032017.nc | 06-Dec-2024 04:48 | 1477916 | ||
| 46087_TS_DEWT_032018.nc | 06-Dec-2024 04:57 | 429314 | ||
| 46087_TS_DEWT_032019.nc | 06-Dec-2024 05:01 | 429422 | ||
| 46087_TS_DEWT_032020.nc | 06-Dec-2024 05:03 | 429418 | ||
| 46087_TS_DEWT_032023.nc | 06-Dec-2024 05:10 | 429318 | ||
| 46087_TS_DEWT_032025.nc | 02-Apr-2025 06:18 | 429332 | ||
| 46087_TS_DEWT_032026.nc | 24-Mar-2026 09:10 | 1475206 | ||
| 46087_TS_DEWT_042005.nc | 06-Dec-2024 04:23 | 429402 | ||
| 46087_TS_DEWT_042006.nc | 06-Dec-2024 04:25 | 429274 | ||
| 46087_TS_DEWT_042007.nc | 06-Dec-2024 04:27 | 429834 | ||
| 46087_TS_DEWT_042008.nc | 06-Dec-2024 04:29 | 429763 | ||
| 46087_TS_DEWT_042009.nc | 06-Dec-2024 04:31 | 606073 | ||
| 46087_TS_DEWT_042011.nc | 06-Dec-2024 04:33 | 1478163 | ||
| 46087_TS_DEWT_042013.nc | 06-Dec-2024 04:39 | 427711 | ||
| 46087_TS_DEWT_042014.nc | 06-Dec-2024 04:41 | 428963 | ||
| 46087_TS_DEWT_042015.nc | 06-Dec-2024 04:43 | 421398 | ||
| 46087_TS_DEWT_042016.nc | 06-Dec-2024 04:46 | 429785 | ||
| 46087_TS_DEWT_042017.nc | 06-Dec-2024 04:48 | 1625994 | ||
| 46087_TS_DEWT_042018.nc | 06-Dec-2024 04:57 | 427435 | ||
| 46087_TS_DEWT_042019.nc | 06-Dec-2024 05:01 | 428502 | ||
| 46087_TS_DEWT_042020.nc | 06-Dec-2024 05:04 | 425978 | ||
| 46087_TS_DEWT_042023.nc | 06-Dec-2024 05:10 | 419359 | ||
| 46087_TS_DEWT_042025.nc | 01-May-2025 04:18 | 429450 | ||
| 46087_TS_DEWT_052005.nc | 06-Dec-2024 04:23 | 1476811 | ||
| 46087_TS_DEWT_052006.nc | 06-Dec-2024 04:25 | 422930 | ||
| 46087_TS_DEWT_052007.nc | 06-Dec-2024 04:27 | 429498 | ||
| 46087_TS_DEWT_052008.nc | 06-Dec-2024 04:30 | 429811 | ||
| 46087_TS_DEWT_052009.nc | 06-Dec-2024 04:32 | 429820 | ||
| 46087_TS_DEWT_052011.nc | 06-Dec-2024 04:33 | 1626015 | ||
| 46087_TS_DEWT_052013.nc | 06-Dec-2024 04:39 | 429415 | ||
| 46087_TS_DEWT_052014.nc | 06-Dec-2024 04:41 | 429448 | ||
| 46087_TS_DEWT_052015.nc | 06-Dec-2024 04:44 | 429478 | ||
| 46087_TS_DEWT_052016.nc | 06-Dec-2024 04:46 | 1476424 | ||
| 46087_TS_DEWT_052017.nc | 06-Dec-2024 04:48 | 429703 | ||
| 46087_TS_DEWT_052018.nc | 06-Dec-2024 04:57 | 429841 | ||
| 46087_TS_DEWT_052019.nc | 06-Dec-2024 05:01 | 429651 | ||
| 46087_TS_DEWT_052020.nc | 06-Dec-2024 05:04 | 1477683 | ||
| 46087_TS_DEWT_052023.nc | 06-Dec-2024 05:10 | 450017 | ||
| 46087_TS_DEWT_052025.nc | 01-Jun-2025 04:07 | 429359 | ||
| 46087_TS_DEWT_062005.nc | 06-Dec-2024 04:24 | 447199 | ||
| 46087_TS_DEWT_062006.nc | 06-Dec-2024 04:25 | 427056 | ||
| 46087_TS_DEWT_062007.nc | 06-Dec-2024 04:28 | 680846 | ||
| 46087_TS_DEWT_062008.nc | 06-Dec-2024 04:30 | 442548 | ||
| 46087_TS_DEWT_062009.nc | 06-Dec-2024 04:32 | 449481 | ||
| 46087_TS_DEWT_062011.nc | 06-Dec-2024 04:33 | 440378 | ||
| 46087_TS_DEWT_062012.nc | 06-Dec-2024 04:38 | 1010398 | ||
| 46087_TS_DEWT_062013.nc | 06-Dec-2024 04:40 | 450514 | ||
| 46087_TS_DEWT_062014.nc | 06-Dec-2024 04:41 | 447968 | ||
| 46087_TS_DEWT_062015.nc | 06-Dec-2024 04:44 | 453157 | ||
| 46087_TS_DEWT_062016.nc | 06-Dec-2024 04:46 | 1079582 | ||
| 46087_TS_DEWT_062017.nc | 06-Dec-2024 04:49 | 448799 | ||
| 46087_TS_DEWT_062018.nc | 06-Dec-2024 04:58 | 448992 | ||
| 46087_TS_DEWT_062019.nc | 06-Dec-2024 05:02 | 450471 | ||
| 46087_TS_DEWT_062020.nc | 06-Dec-2024 05:04 | 973119 | ||
| 46087_TS_DEWT_062023.nc | 06-Dec-2024 05:11 | 443274 | ||
| 46087_TS_DEWT_062025.nc | 01-Jul-2025 03:34 | 453643 | ||
| 46087_TS_DEWT_072004.nc | 06-Dec-2024 04:21 | 453222 | ||
| 46087_TS_DEWT_072005.nc | 06-Dec-2024 04:24 | 429164 | ||
| 46087_TS_DEWT_072006.nc | 06-Dec-2024 04:26 | 1108604 | ||
| 46087_TS_DEWT_072007.nc | 06-Dec-2024 04:28 | 423552 | ||
| 46087_TS_DEWT_072008.nc | 06-Dec-2024 04:30 | 450237 | ||
| 46087_TS_DEWT_072009.nc | 06-Dec-2024 04:32 | 451445 | ||
| 46087_TS_DEWT_072011.nc | 06-Dec-2024 04:33 | 445919 | ||
| 46087_TS_DEWT_072012.nc | 06-Dec-2024 04:38 | 433487 | ||
| 46087_TS_DEWT_072013.nc | 06-Dec-2024 04:40 | 1015056 | ||
| 46087_TS_DEWT_072014.nc | 06-Dec-2024 04:42 | 1111860 | ||
| 46087_TS_DEWT_072015.nc | 06-Dec-2024 04:44 | 450959 | ||
| 46087_TS_DEWT_072016.nc | 06-Dec-2024 04:46 | 445168 | ||
| 46087_TS_DEWT_072017.nc | 06-Dec-2024 04:50 | 431985 | ||
| 46087_TS_DEWT_072018.nc | 06-Dec-2024 04:59 | 641710 | ||
| 46087_TS_DEWT_072019.nc | 06-Dec-2024 05:02 | 1017914 | ||
| 46087_TS_DEWT_072020.nc | 06-Dec-2024 05:04 | 1265729 | ||
| 46087_TS_DEWT_072023.nc | 06-Dec-2024 05:11 | 1119487 | ||
| 46087_TS_DEWT_072025.nc | 01-Aug-2025 03:33 | 448257 | ||
| 46087_TS_DEWT_082004.nc | 06-Dec-2024 04:21 | 451925 | ||
| 46087_TS_DEWT_082005.nc | 06-Dec-2024 04:24 | 639794 | ||
| 46087_TS_DEWT_082006.nc | 06-Dec-2024 04:26 | 1022872 | ||
| 46087_TS_DEWT_082007.nc | 06-Dec-2024 04:28 | 1266507 | ||
| 46087_TS_DEWT_082008.nc | 06-Dec-2024 04:30 | 3662447 | ||
| 46087_TS_DEWT_082009.nc | 06-Dec-2024 04:32 | 448987 | ||
| 46087_TS_DEWT_082011.nc | 06-Dec-2024 04:34 | 451837 | ||
| 46087_TS_DEWT_082012.nc | 06-Dec-2024 04:38 | 634869 | ||
| 46087_TS_DEWT_082013.nc | 06-Dec-2024 04:40 | 993245 | ||
| 46087_TS_DEWT_082014.nc | 06-Dec-2024 04:42 | 1111589 | ||
| 46087_TS_DEWT_082015.nc | 06-Dec-2024 04:44 | 1112521 | ||
| 46087_TS_DEWT_082016.nc | 06-Dec-2024 04:46 | 4055396 | ||
| 46087_TS_DEWT_082017.nc | 06-Dec-2024 04:52 | 4615537 | ||
| 46087_TS_DEWT_082018.nc | 06-Dec-2024 05:00 | 452104 | ||
| 46087_TS_DEWT_082019.nc | 06-Dec-2024 05:02 | 451142 | ||
| 46087_TS_DEWT_082020.nc | 06-Dec-2024 05:04 | 419562 | ||
| 46087_TS_DEWT_082023.nc | 06-Dec-2024 05:11 | 1026823 | ||
| 46087_TS_DEWT_082025.nc | 16-Aug-2025 03:34 | 478790 | ||
| 46087_TS_DEWT_092004.nc | 06-Dec-2024 04:21 | 1111480 | ||
| 46087_TS_DEWT_092005.nc | 06-Dec-2024 04:24 | 3991001 | ||
| 46087_TS_DEWT_092006.nc | 06-Dec-2024 04:26 | 1200900 | ||
| 46087_TS_DEWT_092007.nc | 06-Dec-2024 04:28 | 429942 | ||
| 46087_TS_DEWT_092008.nc | 06-Dec-2024 04:30 | 439769 | ||
| 46087_TS_DEWT_092009.nc | 06-Dec-2024 04:32 | 443755 | ||
| 46087_TS_DEWT_092011.nc | 06-Dec-2024 04:35 | 422920 | ||
| 46087_TS_DEWT_092012.nc | 06-Dec-2024 04:38 | 1024959 | ||
| 46087_TS_DEWT_092013.nc | 06-Dec-2024 04:40 | 1024894 | ||
| 46087_TS_DEWT_092014.nc | 06-Dec-2024 04:42 | 450336 | ||
| 46087_TS_DEWT_092015.nc | 06-Dec-2024 04:44 | 432062 | ||
| 46087_TS_DEWT_092016.nc | 06-Dec-2024 04:46 | 442738 | ||
| 46087_TS_DEWT_092017.nc | 06-Dec-2024 04:53 | 426433 | ||
| 46087_TS_DEWT_092018.nc | 06-Dec-2024 05:00 | 634858 | ||
| 46087_TS_DEWT_092019.nc | 06-Dec-2024 05:02 | 456172 | ||
| 46087_TS_DEWT_092020.nc | 06-Dec-2024 05:04 | 520682 | ||
| 46087_TS_DEWT_092022.nc | 06-Dec-2024 05:08 | 429678 | ||
| 46087_TS_DEWT_092023.nc | 06-Dec-2024 05:12 | 429666 | ||
| 46087_TS_DEWT_092025.nc | 01-Oct-2025 03:07 | 429614 | ||
| 46087_TS_DEWT_102004.nc | 06-Dec-2024 04:22 | 429690 | ||
| 46087_TS_DEWT_102005.nc | 06-Dec-2024 04:24 | 429698 | ||
| 46087_TS_DEWT_102006.nc | 06-Dec-2024 04:26 | 429697 | ||
| 46087_TS_DEWT_102007.nc | 06-Dec-2024 04:28 | 429598 | ||
| 46087_TS_DEWT_102008.nc | 06-Dec-2024 04:30 | 429652 | ||
| 46087_TS_DEWT_102009.nc | 06-Dec-2024 04:33 | 429618 | ||
| 46087_TS_DEWT_102011.nc | 06-Dec-2024 04:35 | 429689 | ||
| 46087_TS_DEWT_102012.nc | 06-Dec-2024 04:38 | 429687 | ||
| 46087_TS_DEWT_102013.nc | 06-Dec-2024 04:40 | 429693 | ||
| 46087_TS_DEWT_102014.nc | 06-Dec-2024 04:42 | 429687 | ||
| 46087_TS_DEWT_102015.nc | 06-Dec-2024 04:44 | 429685 | ||
| 46087_TS_DEWT_102016.nc | 06-Dec-2024 04:47 | 429692 | ||
| 46087_TS_DEWT_102017.nc | 06-Dec-2024 04:53 | 429700 | ||
| 46087_TS_DEWT_102018.nc | 06-Dec-2024 05:00 | 429687 | ||
| 46087_TS_DEWT_102019.nc | 06-Dec-2024 05:02 | 450888 | ||
| 46087_TS_DEWT_102020.nc | 06-Dec-2024 05:05 | 450409 | ||
| 46087_TS_DEWT_102022.nc | 06-Dec-2024 05:08 | 451069 | ||
| 46087_TS_DEWT_102023.nc | 06-Dec-2024 05:12 | 450951 | ||
| 46087_TS_DEWT_102024.nc | 12-Jan-2025 20:05 | 451348 | ||
| 46087_TS_DEWT_102025.nc | 01-Nov-2025 04:09 | 451026 | ||
| 46087_TS_DEWT_112004.nc | 06-Dec-2024 04:22 | 451222 | ||
| 46087_TS_DEWT_112005.nc | 06-Dec-2024 04:24 | 451408 | ||
| 46087_TS_DEWT_112006.nc | 06-Dec-2024 04:26 | 451477 | ||
| 46087_TS_DEWT_112007.nc | 06-Dec-2024 04:28 | 451313 | ||
| 46087_TS_DEWT_112008.nc | 06-Dec-2024 04:31 | 451639 | ||
| 46087_TS_DEWT_112009.nc | 06-Dec-2024 04:33 | 450825 | ||
| 46087_TS_DEWT_112011.nc | 06-Dec-2024 04:36 | 450826 | ||
| 46087_TS_DEWT_112012.nc | 06-Dec-2024 04:38 | 450692 | ||
| 46087_TS_DEWT_112013.nc | 06-Dec-2024 04:40 | 450054 | ||
| 46087_TS_DEWT_112014.nc | 06-Dec-2024 04:42 | 450809 | ||
| 46087_TS_DEWT_112015.nc | 06-Dec-2024 04:45 | 451157 | ||
| 46087_TS_DEWT_112016.nc | 06-Dec-2024 04:47 | 450175 | ||
| 46087_TS_DEWT_112017.nc | 06-Dec-2024 04:54 | 450447 | ||
| 46087_TS_DEWT_112018.nc | 06-Dec-2024 05:00 | 450819 | ||
| 46087_TS_DEWT_112019.nc | 06-Dec-2024 05:03 | 451578 | ||
| 46087_TS_DEWT_112020.nc | 06-Dec-2024 05:07 | 450473 | ||
| 46087_TS_DEWT_112022.nc | 06-Dec-2024 05:08 | 3743301 | ||
| 46087_TS_DEWT_112023.nc | 06-Dec-2024 05:12 | 428677 | ||
| 46087_TS_DEWT_112024.nc | 17-Jan-2025 13:31 | 428678 | ||
| 46087_TS_DEWT_112025.nc | 01-Dec-2025 04:52 | 428648 | ||
| 46087_TS_DEWT_122004.nc | 06-Dec-2024 04:22 | 429039 | ||
| 46087_TS_DEWT_122005.nc | 06-Dec-2024 04:25 | 428693 | ||
| 46087_TS_DEWT_122006.nc | 06-Dec-2024 04:27 | 428693 | ||
| 46087_TS_DEWT_122007.nc | 06-Dec-2024 04:29 | 428693 | ||
| 46087_TS_DEWT_122008.nc | 06-Dec-2024 04:31 | 428671 | ||
| 46087_TS_DEWT_122011.nc | 06-Dec-2024 04:37 | 428692 | ||
| 46087_TS_DEWT_122012.nc | 06-Dec-2024 04:39 | 428529 | ||
| 46087_TS_DEWT_122013.nc | 06-Dec-2024 04:40 | 428638 | ||
| 46087_TS_DEWT_122014.nc | 06-Dec-2024 04:42 | 429038 | ||
| 46087_TS_DEWT_122015.nc | 06-Dec-2024 04:45 | 428690 | ||
| 46087_TS_DEWT_122016.nc | 06-Dec-2024 04:47 | 428692 | ||
| 46087_TS_DEWT_122017.nc | 06-Dec-2024 04:55 | 428690 | ||
| 46087_TS_DEWT_122018.nc | 06-Dec-2024 05:00 | 429036 | ||
| 46087_TS_DEWT_122019.nc | 06-Dec-2024 05:03 | 428693 | ||
| 46087_TS_DEWT_122022.nc | 06-Dec-2024 05:09 | 448039 | ||
| 46087_TS_DEWT_122023.nc | 06-Dec-2024 05:13 | 447474 | ||
| 46087_TS_DEWT_122024.nc | 22-Jan-2025 15:44 | 449696 | ||
| 46087_TS_DEWT_122025.nc | 01-Jan-2026 06:33 | 448375 | ||